User: anonymous   Login
Location: Caltech
(34.1382°N, 118.1253°W)
Time: 18:04:57
(UTC-07:00)
Language:

Iridium 21 - Orbit

View from above orbital plane
View from above orbital plane
View from above satellite
View from above satellite

Ground track
Ground track

The orbit data is extracted from the following two-line orbital elements,

1 25778U 99032B   16177.53163918 -.00000035  00000-0 -19572-4 0  9998
2 25778  86.3949  13.0698 0002059  87.7073 272.4358 14.34217376896995
Epoch (UTC): 25 June 2016 12:45:33
Eccentricity: 0.0002059
inclination: 86.3949°
perigee height: 776 km
apogee height: 779 km
right ascension of ascending node: 13.0698°
argument of perigee: 87.7073°
revolutions per day: 14.34217376
mean anomaly at epoch: 272.4358°
orbit number at epoch: 89699

The dashed part of the orbit path shows where the satellite is in the earth's shadow,  

DLR